Wind_Speed
30 30 30 31 31 32 33 34 33 33 32 31 30 29 28 27 26 26 25 24 24 23 22 22 21 20 20 19 18 18 17 17 17 16 16 15 15 15 15 14 14 14 14 14 14 14 14 14 14 14 14 14 14 13 13 13 13 13 13 13 13 13 13 13 13 13 13 14 14 14 15 15 16 16 16 17 17 17 17 17 18 18 18 18 19 19
30 31 32 32 32 32 33 32 32 31 31 30 29 28 27 26 25 25 24 24 23 22 21 20 20 19 18 18 17 17 17 17 17 16 16 15 15 15 14 14 14 14 14 14 14 14 14 14 14 14 14 14 14 13 13 13 13 13 13 13 13 13 13 13 13 13 13 13 13 14 14 14 15 15 16 16 16 17 17 18 18 19 19 20 20 21
30 31 32 32 32 32 32 31 31 30 29 29 28 27 26 25 25 24 24 23 22 21 20 19 19 18 17 17 17 17 17 17 17 16 16 15 15 14 14 14 13 13 13 13 13 14 14 14 14 14 14 14 14 13 13 13 13 13 13 13 13 13 13 13 13 13 13 13 13 13 14 14 14 15 15 15 16 16 17 18 18 19 20 21 21 22
30 31 32 32 32 31 30 30 29 29 28 27 26 25 25 25 24 23 23 22 21 20 19 18 17 17 17 17 17 17 17 17 16 16 15 15 14 14 14 13 13 13 13 13 13 14 14 14 14 14 14 14 14 14 14 14 14 14 14 14 14 14 14 13 13 13 13 13 14 14 14 14 15 15 15 15 16 16 17 17 18 19 20 20 21 22
32 32 32 32 31 30 29 29 28 27 27 26 25 25 24 24 23 22 21 20 19 18 18 17 17 16 16 16 17 17 17 17 16 15 15 14 14 14 13 13 13 13 13 14 14 14 14 14 14 14 14 14 14 14 14 14 14 15 15 15 15 15 15 14 14 14 14 14 14 15 15 15 15 15 16 16 16 16 16 17 17 18 19 20 20 21
33 32 32 31 29 29 28 28 27 26 25 25 24 24 23 23 22 20 19 18 18 17 17 16 16 16 16 17 17 17 17 16 15 15 14 14 13 13 13 13 13 14 14 14 14 14 14 15 15 15 15 15 15 15 15 15 15 15 16 16 16 16 15 15 15 15 15 16 16 16 16 16 16 16 16 16 16 17 17 17 17 17 18 19 19 20
33 32 30 29 28 27 27 26 25 25 24 24 24 23 22 21 20 19 18 17 17 16 16 16 16 16 17 17 17 17 16 15 15 14 14 13 13 13 13 13 14 14 14 14 14 15 15 15 15 15 15 15 16 16 16 16 16 16 16 17 17 16 16 16 16 16 17 17 17 17 17 17 18 18 17 17 17 17 17 17 17 18 18 18 19 19
31 30 28 27 26 26 25 25 24 24 24 23 22 21 20 19 18 17 16 16 16 16 16 16 17 17 17 17 17 16 15 15 14 14 13 13 13 13 14 14 14 14 14 14 15 15 15 16 16 16 16 16 17 17 17 17 17 17 17 17 17 17 17 17 17 18 18 18 18 18 19 19 19 19 19 18 18 18 18 18 18 18 18 18 19 19
30 28 26 25 25 24 24 24 23 23 23 22 21 19 18 17 16 16 16 16 16 16 16 17 17 17 17 17 16 16 15 14 14 13 13 13 14 14 14 14 14 14 15 15 15 16 16 16 17 17 17 17 17 18 18 18 18 18 18 18 18 18 18 18 18 19 19 19 19 19 20 20 20 20 20 20 19 19 19 19 19 19 19 19 19 19
27 26 24 24 23 23 23 23 23 22 21 20 18 17 16 15 15 15 16 16 16 16 17 17 17 17 16 16 16 15 15 14 14 14 14 14 14 14 15 15 15 15 15 15 16 16 16 17 17 17 18 18 18 18 18 18 18 18 18 18 18 19 19 19 19 19 20 20 20 20 20 21 21 21 21 21 21 21 20 20 20 20 20 20 20 20
25 24 23 23 22 22 22 22 22 20 19 18 17 16 15 15 15 16 16 16 16 17 17 17 17 16 16 15 15 15 15 14 14 14 14 14 14 15 15 15 15 16 16 16 16 17 17 17 18 18 18 18 19 19 19 19 19 19 19 19 19 19 19 20 20 20 20 21 21 21 21 21 22 22 22 22 22 22 22 21 21 21 21 20 20 20
23 23 22 22 22 21 21 21 20 18 17 16 15 15 15 15 16 16 16 16 16 16 17 17 16 16 15 15 15 15 15 15 15 15 15 15 15 15 15 16 16 16 16 16 17 17 17 18 18 18 19 19 19 19 19 19 19 19 20 20 20 20 20 20 20 21 21 21 21 22 22 22 22 22 23 23 23 23 23 22 22 22 22 21 21 21
22 22 21 21 21 20 20 19 17 16 15 15 15 15 16 16 17 16 16 15 15 15 16 16 16 16 15 15 15 15 15 15 15 15 15 15 16 16 16 16 16 16 16 17 17 18 18 18 18 19 19 19 20 20 20 20 20 20 20 20 20 20 21 21 21 21 21 22 22 22 23 23 23 23 23 24 24 24 24 23 23 23 23 22 22 21
22 21 21 20 19 18 17 16 16 15 15 15 15 16 16 17 17 16 16 15 14 14 15 15 15 15 16 16 15 15 15 15 15 15 16 16 16 16 16 16 16 16 17 17 17 18 18 19 19 19 20 20 20 20 20 20 20 20 21 21 21 21 21 21 21 21 22 22 22 23 23 23 24 24 24 24 24 24 24 24 24 24 23 23 22 22
21 20 19 18 17 16 16 15 15 15 15 15 16 16 16 16 16 16 15 15 14 14 14 15 15 15 16 16 16 16 15 15 15 15 16 16 16 16 16 16 16 17 17 17 18 18 19 19 19 20 20 20 21 21 21 21 21 21 21 21 21 21 21 22 22 22 22 23 23 23 24 24 24 24 25 25 25 25 25 25 24 24 24 23 22 22
20 19 18 16 16 15 15 15 15 15 15 16 16 16 15 15 15 15 15 14 14 14 15 15 15 15 16 16 17 17 16 16 16 16 16 16 17 17 17 17 17 17 18 18 18 18 19 19 20 20 20 21 21 21 21 21 21 21 21 21 21 22 22 22 22 22 23 23 24 24 24 25 25 25 25 25 25 25 25 25 25 24 24 23 22 22
18 17 16 15 14 14 14 15 15 15 15 15 15 15 15 15 15 15 15 15 15 15 15 16 15 15 15 16 17 17 17 16 16 16 16 16 17 17 17 17 17 17 18 18 18 18 19 19 20 20 21 21 21 21 21 21 21 21 22 22 22 22 22 22 23 23 23 24 24 24 25 25 25 26 26 26 26 25 25 25 24 24 23 22 22 21
16 16 15 14 14 14 14 15 15 15 15 15 15 15 15 15 15 15 15 15 15 16 16 16 16 16 16 15 16 18 18 17 16 16 17 17 18 18 18 17 17 18 18 18 18 19 19 19 20 20 21 21 21 21 21 21 22 22 22 22 22 22 23 23 23 23 24 24 25 25 25 26 26 26 26 26 26 25 25 25 24 23 22 22 21 20
15 15 14 14 14 14 14 14 15 15 15 15 15 15 15 15 15 16 16 16 16 16 16 17 17 17 17 16 16 18 18 18 17 17 17 18 18 18 18 18 18 18 18 18 19 19 19 20 20 20 21 21 21 21 21 22 22 22 22 22 22 23 23 23 23 24 24 25 25 25 26 26 26 26 26 26 26 25 25 24 23 22 22 21 20 19
15 14 14 14 14 14 14 14 15 15 16 16 16 16 16 16 16 16 16 17 17 17 17 17 17 17 17 17 17 18 18 18 17 17 17 18 18 18 18 18 18 18 18 19 19 19 19 20 20 21 21 21 21 22 22 22 22 22 22 22 23 23 23 23 24 24 25 25 25 26 26 26 26 26 26 26 25 25 24 23 22 21 20 20 19 18
15 14 14 14 14 14 14 15 15 16 16 16 16 16 17 17 17 17 17 17 17 17 17 17 17 18 18 17 17 17 18 18 17 17 18 18 19 19 19 18 18 18 18 19 19 19 20 20 21 21 21 22 22 22 22 22 22 22 23 23 23 23 23 24 24 24 25 25 25 26 26 26 26 26 26 25 25 24 23 22 21 20 19 19 18 17
14 14 15 15 15 15 15 15 16 16 17 17 17 17 17 17 17 18 18 18 18 18 18 18 18 18 18 17 17 18 18 18 18 18 18 18 18 19 19 19 18 18 19 19 19 19 20 20 21 21 22 22 22 22 22 22 22 23 23 23 23 23 24 24 24 25 25 25 25 26 26 26 26 25 25 24 24 23 22 21 20 20 19 18 17 17
15 15 15 15 16 16 16 16 17 17 17 17 17 18 18 18 18 18 18 18 18 18 18 18 18 18 18 18 18 18 18 18 18 18 18 18 18 19 19 19 19 19 19 19 19 20 20 21 21 22 22 22 22 23 23 23 23 23 23 23 23 24 24 24 24 25 25 25 25 26 26 26 25 25 24 24 23 22 21 20 20 19 18 18 17 17
15 15 16 16 16 17 17 17 17 18 18 18 18 18 18 18 18 18 19 19 19 19 19 19 18 18 18 18 18 18 18 18 18 18 18 18 18 19 19 19 19 19 19 19 19 20 20 21 21 22 22 23 23 23 23 23 23 23 23 23 24 24 24 24 24 25 25 25 25 25 25 25 25 24 24 23 22 21 21 20 19 19 18 18 17 17
15 16 16 17 17 17 18 18 18 18 18 19 19 19 19 19 19 19 19 19 19 19 19 19 18 18 18 18 18 18 18 19 18 18 18 18 18 19 19 19 19 19 19 19 20 20 20 21 22 22 23 23 23 23 23 23 24 24 24 24 24 24 24 24 25 25 25 25 25 25 25 25 24 24 23 22 22 21 20 20 19 19 18 18 18 18
16 17 17 17 18 18 18 18 19 19 19 19 19 19 19 19 19 19 19 19 19 19 19 18 18 18 18 18 18 18 19 19 19 18 18 18 18 19 19 19 19 19 19 20 20 20 20 21 22 22 23 23 23 24 24 24 24 24 24 24 24 24 24 24 25 25 25 25 25 25 25 25 24 23 23 22 21 21 20 19 19 19 18 18 18 18
17 17 18 18 18 19 19 19 19 19 19 19 19 19 19 19 19 19 19 19 19 19 18 18 18 19 19 18 18 19 19 19 19 19 18 18 18 18 19 19 19 19 19 20 20 20 21 21 22 22 23 23 24 24 24 24 24 24 24 24 24 24 25 25 25 25 25 25 25 25 25 24 24 23 22 22 21 20 20 20 19 19 19 18 18 19
17 18 18 18 19 19 19 19 19 19 19 20 19 19 19 19 19 19 19 19 19 19 18 18 19 19 19 18 18 19 19 19 19 19 19 18 18 18 19 19 19 19 20 20 20 21 21 21 22 22 23 23 24 24 24 24 24 25 25 25 25 25 25 25 25 25 25 25 25 25 24 24 24 23 22 22 21 20 20 20 19 19 19 19 19 19
18 18 18 19 19 19 19 19 19 19 19 19 19 19 19 19 19 19 19 19 19 19 19 19 19 19 19 19 19 19 19 19 20 19 19 18 18 18 19 19 19 20 20 20 21 21 21 22 22 23 23 23 24 24 24 24 25 25 25 25 25 25 25 25 25 25 25 25 25 25 24 24 23 23 22 22 21 21 20 20 20 19 19 19 19 19
18 18 19 19 19 19 19 19 19 19 19 19 19 19 19 19 19 19 19 19 19 19 19 19 19 19 19 19 19 19 19 20 20 19 19 18 18 18 19 19 20 20 21 20 21 21 22 23 23 24 23 24 24 24 24 24 25 25 25 25 25 25 25 25 25 25 25 25 25 24 24 24 23 23 22 22 22 21 21 21 20 20 20 20 20 20
18 19 19 19 19 19 19 19 19 19 19 19 19 18 18 18 18 19 19 19 19 19 19 19 19 19 19 19 19 19 19 20 20 20 19 18 18 19 19 20 20 21 21 21 21 21 22 23 24 25 24 24 24 24 24 24 25 25 25 25 25 25 25 25 25 25 25 25 24 24 24 24 23 23 22 22 22 22 22 21 21 21 21 21 21 21
19 19 19 19 19 19 19 19 19 19 18 18 18 18 18 18 18 18 19 19 19 19 19 19 20 20 20 20 19 19 19 20 20 20 20 19 19 19 20 20 21 21 22 22 21 21 21 22 23 25 25 25 25 25 25 25 25 25 25 25 25 25 25 25 24 24 24 24 24 24 24 23 23 23 23 22 22 22 22 22 22 22 22 22 22 22
19 19 19 19 19 19 19 19 19 18 18 18 18 18 18 18 18 19 19 19 19 19 19 20 20 20 20 20 20 19 19 20 20 21 20 20 20 20 21 21 21 22 22 22 22 22 22 22 23 24 25 25 25 25 25 25 25 25 25 24 24 24 25 24 24 24 24 24 23 23 23 23 23 22 22 22 22 22 22 23 23 23 23 22 22 23
18 19 19 19 19 19 19 19 18 18 18 18 18 18 18 18 19 19 19 19 19 20 20 20 20 20 20 20 20 20 20 20 20 21 21 20 20 21 21 22 22 22 22 23 23 23 23 23 24 24 25 26 26 26 25 25 25 25 25 25 24 24 24 24 24 24 23 23 23 23 23 22 22 22 22 22 22 22 22 23 23 23 23 23 23 23
18 18 19 19 19 19 19 19 18 18 18 18 18 18 18 19 19 19 19 20 20 20 20 20 20 20 20 20 20 20 20 20 21 21 21 21 21 22 22 22 23 23 23 23 23 24 24 24 24 24 25 26 26 26 26 26 25 25 25 25 25 24 24 24 24 23 23 23 23 22 22 22 22 22 22 22 22 22 22 23 23 23 23 23 23 23
18 18 18 18 18 19 19 19 19 19 18 18 18 19 19 19 19 19 20 20 20 20 20 20 20 20 21 21 21 21 21 21 21 22 22 22 22 22 23 23 24 24 24 24 24 24 24 24 24 25 25 25 26 27 27 26 26 26 26 25 25 25 25 25 24 24 23 23 23 23 23 23 23 23 23 23 23 23 23 23 23 23 23 24 24 24
18 18 18 18 18 18 19 19 19 19 19 19 19 19 19 19 20 20 20 20 20 20 20 21 21 21 21 21 21 21 21 21 22 22 22 23 23 23 24 24 25 25 25 25 24 24 24 24 25 25 25 25 26 26 26 27 27 26 26 26 26 26 26 26 25 25 24 24 24 24 24 24 24 24 24 24 24 24 24 24 24 24 24 24 24 24
18 18 18 18 18 18 18 19 19 19 19 19 19 19 19 20 20 20 20 20 20 20 21 21 21 21 21 22 22 22 22 22 22 23 23 23 24 24 24 25 25 26 26 25 25 25 25 25 25 25 25 26 26 26 26 26 26 26 26 27 27 27 27 27 26 26 25 25 25 25 26 26 26 26 26 26 26 26 26 26 25 25 25 25 25 24
18 18 18 18 18 18 18 19 19 19 19 19 19 19 19 20 20 20 20 20 20 20 21 21 21 22 22 22 23 23 23 23 23 23 24 24 25 25 25 25 26 26 27 26 26 26 26 25 25 25 25 25 26 26 26 26 26 26 26 26 27 27 27 27 27 26 26 26 26 26 26 27 27 27 27 28 28 27 27 27 27 27 27 26 26 26
18 18 18 18 18 19 19 19 19 19 19 19 19 19 20 20 20 20 20 20 20 21 21 21 22 22 22 23 23 24 24 24 24 25 25 25 25 26 26 26 26 26 27 27 27 27 26 26 26 26 26 25 25 25 26 26 26 26 26 26 26 27 27 27 27 26 26 26 26 26 26 27 27 28 28 28 28 28 28 28 28 28 28 28 27 27
18 18 19 19 19 19 19 19 19 20 20 20 20 20 20 20 20 20 21 21 21 21 22 22 22 23 23 24 24 25 25 25 26 26 26 26 26 26 27 27 27 27 27 27 27 27 27 27 26 26 26 26 25 25 25 25 26 26 26 26 26 26 27 27 27 27 26 26 26 26 27 27 28 28 28 29 29 29 29 29 29 29 29 29 28 27
18 19 19 19 19 19 19 20 20 20 20 20 21 21 21 21 21 21 21 22 22 22 22 23 23 23 24 24 25 26 26 26 27 27 27 27 27 27 27 27 27 27 27 27 27 27 28 27 27 26 26 26 25 25 24 25 26 26 27 26 26 26 26 26 27 27 26 26 26 27 27 27 28 28 29 29 29 29 29 29 29 29 29 29 29 28
19 19 19 19 20 20 20 20 21 21 21 21 21 21 22 22 22 22 22 23 23 23 24 24 24 24 24 25 26 27 27 27 27 28 28 28 28 28 28 28 28 28 28 28 27 28 28 28 27 27 27 26 25 24 24 24 25 26 27 27 27 26 25 25 26 26 26 26 27 27 27 28 28 28 29 29 29 29 30 29 29 29 29 29 29 28
20 20 20 20 20 20 21 21 21 21 21 22 22 22 23 23 23 23 23 24 24 24 25 25 25 25 25 26 27 27 28 28 28 28 29 29 29 29 29 29 29 29 29 28 28 27 28 28 28 27 27 27 26 25 24 25 25 26 27 27 27 26 25 25 26 26 26 27 27 28 28 28 29 29 29 30 30 30 30 30 30 30 29 29 28 28
20 21 21 21 21 21 21 21 22 22 22 22 23 23 23 24 24 24 24 24 25 25 25 25 25 25 26 27 27 28 28 28 29 29 30 30 30 30 30 30 30 29 29 29 28 28 28 27 27 28 27 27 26 25 25 25 25 26 27 27 27 26 26 26 26 26 26 27 27 28 29 29 29 30 30 30 30 30 30 30 30 29 29 29 28 28
21 22 22 22 22 22 22 22 23 23 23 24 24 24 24 25 25 25 25 25 25 25 26 26 26 26 26 27 28 28 28 29 29 30 31 31 32 32 32 31 31 30 29 29 29 28 28 28 27 27 27 26 26 25 25 25 26 26 26 27 27 26 26 26 26 27 27 27 27 28 29 29 30 30 30 30 30 30 30 30 29 29 29 28 28 27
22 23 23 23 23 23 24 24 24 24 24 25 25 25 25 26 26 26 26 26 26 26 26 26 27 27 27 28 28 29 29 29 29 30 30 31 32 32 33 32 32 31 30 30 29 29 28 28 28 27 27 26 25 25 25 26 26 26 26 26 26 26 26 26 27 27 27 27 28 28 29 30 30 30 30 30 30 30 29 29 29 28 28 28 27 27
24 24 24 24 24 25 25 25 25 25 25 26 26 26 26 27 27 27 27 27 27 27 27 27 27 28 28 28 29 29 29 29 30 30 30 30 31 32 33 33 32 32 31 30 30 29 28 28 28 27 27 26 25 25 25 26 26 26 26 26 26 26 26 26 27 27 28 28 28 29 29 30 30 31 31 31 30 29 29 28 28 28 27 27 27 26
25 25 25 25 26 26 26 26 26 26 26 26 27 27 27 27 28 28 28 28 28 28 28 28 28 28 29 29 29 30 30 30 30 30 30 30 30 31 31 32 32 32 31 31 30 29 29 28 28 27 27 26 26 25 25 26 26 26 26 26 26 26 26 26 27 27 28 28 29 29 30 30 31 31 31 31 30 29 28 27 27 27 27 27 26 26
26 26 26 26 26 27 27 27 27 27 27 27 27 28 28 28 28 29 29 29 29 29 29 29 29 29 29 29 30 30 30 31 31 31 31 31 31 30 30 30 30 30 30 30 30 29 29 28 27 27 27 27 27 26 26 26 26 26 26 26 26 26 26 27 27 27 28 28 29 29 30 30 31 31 31 31 30 29 28 27 26 26 26 26 26 26
27 27 27 27 27 27 28 28 28 28 28 28 29 29 29 29 30 30 30 30 30 30 30 30 30 30 30 30 30 31 31 31 31 31 31 31 31 31 30 30 29 29 29 29 29 29 28 28 27 26 27 28 28 28 26 26 25 26 26 26 26 27 27 27 27 27 28 28 29 30 30 30 31 31 31 31 31 30 28 26 25 25 25 25 25 25
Wind_Direction
290 292 292 290 286 283 283 285 287 288 289 290 290 289 289 288 287 286 286 286 286 286 285 283 282 281 279 278 277 276 275 273 272 273 274 276 278 281 283 285 286 288 289 290 291 291 292 292 292 291 291 292 292 293 295 297 299 300 302 303 304 305 306 306 306 306 305 305 304 303 302 301 301 300 299 298 297 295 293 292 291 291 290 289 287 286
290 291 291 289 287 286 286 287 287 288 288 288 288 288 287 286 286 286 286 286 285 284 282 280 279 277 276 275 273 272 271 271 272 273 275 277 279 280 282 283 284 285 286 287 288 289 289 290 290 291 292 292 294 295 297 299 300 302 303 304 306 307 307 308 308 308 307 306 304 303 302 301 300 300 299 298 297 296 294 293 291 290 288 287 286 285
292 292 290 289 288 286 286 286 286 287 287 287 286 286 285 285 285 285 285 284 283 282 279 277 275 273 272 271 270 270 270 271 273 274 276 277 278 279 280 281 282 283 283 284 285 286 287 288 289 290 291 293 294 296 298 300 302 303 305 306 308 309 310 311 311 310 308 307 305 304 302 301 301 300 299 299 298 297 295 293 291 289 288 286 285 284
294 293 290 288 287 286 285 285 285 286 286 285 285 285 284 285 285 284 284 283 281 278 276 274 272 270 270 269 269 270 271 272 273 274 275 276 277 278 279 280 280 281 282 283 284 285 286 287 288 290 291 293 294 296 298 300 302 304 306 308 310 311 312 313 312 311 309 308 306 305 304 303 302 301 301 300 299 298 297 295 293 291 289 287 286 285
293 291 289 287 285 285 284 284 284 284 284 284 284 284 284 284 284 283 281 279 277 275 272 270 269 268 268 269 270 271 271 272 272 273 273 274 275 277 278 279 280 281 282 283 285 286 287 288 289 291 292 293 295 296 298 300 302 304 306 309 310 312 312 312 311 310 309 308 307 307 306 305 305 304 303 302 301 300 299 297 296 294 292 290 288 287
290 288 286 285 284 284 284 283 283 283 283 283 283 284 284 283 282 280 278 276 273 271 269 268 267 268 269 269 270 271 271 271 271 271 272 273 275 276 277 278 280 281 283 285 286 287 289 290 291 293 293 295 296 297 299 301 303 305 307 309 311 311 312 311 311 310 309 308 308 308 308 307 307 306 306 305 303 302 301 299 297 296 294 293 291 289
287 285 284 283 282 282 282 282 282 282 283 283 283 283 283 281 279 277 274 272 270 268 267 267 268 269 270 271 271 271 270 270 270 271 272 273 274 275 277 278 280 282 284 285 287 289 290 292 293 294 295 296 298 299 301 303 305 307 308 310 310 311 311 310 310 310 309 309 309 309 309 308 308 307 306 306 304 303 302 300 299 297 295 294 292 291
284 283 282 282 281 281 281 281 281 282 282 283 283 282 280 278 276 273 271 269 268 268 269 269 270 271 272 273 272 272 271 270 271 271 272 274 275 276 278 280 282 284 285 287 289 291 292 293 294 296 297 298 300 301 303 305 306 308 308 309 310 310 310 309 309 309 309 309 310 310 309 309 308 308 307 306 305 304 303 301 300 298 296 295 293 291
282 281 281 280 280 281 281 281 281 282 282 282 280 279 276 274 272 271 270 269 269 270 271 272 273 273 273 274 274 274 273 273 273 274 275 276 278 280 281 283 285 286 288 290 292 293 294 295 296 297 298 299 301 302 303 305 306 306 307 308 308 308 308 308 308 308 309 309 309 310 309 309 308 308 307 306 305 304 303 302 301 299 297 295 294 292
280 280 279 279 279 280 281 282 282 281 281 280 278 275 273 271 270 270 270 271 272 273 274 275 275 274 274 275 275 275 275 276 276 278 279 280 281 283 285 287 288 290 291 293 294 295 295 296 297 298 298 299 300 301 302 303 304 305 305 306 306 306 306 307 307 307 308 309 309 309 309 308 308 307 306 306 305 304 304 303 302 300 298 296 294 292
279 278 278 279 279 280 280 281 280 279 278 276 274 272 271 270 270 270 272 273 275 276 276 276 275 274 274 274 275 276 277 278 279 280 281 282 284 285 287 289 290 292 293 294 295 295 296 296 297 297 298 299 300 301 301 302 303 303 304 304 304 305 305 305 306 307 307 308 308 308 308 308 307 307 306 305 305 304 304 303 302 301 299 298 295 293
277 277 278 279 279 279 279 278 277 276 274 273 272 271 272 272 272 273 274 274 276 276 276 276 275 274 274 274 274 275 277 278 280 281 282 284 285 286 288 289 291 292 293 294 295 295 295 296 296 296 297 298 299 300 301 301 302 302 303 303 303 303 304 304 305 306 307 307 308 308 308 307 307 306 306 305 305 304 304 303 302 301 300 298 296 294
276 277 278 278 278 278 276 275 273 272 271 271 271 272 273 274 275 275 275 274 273 273 273 274 275 275 275 274 274 275 276 278 280 281 283 284 285 286 287 288 290 291 292 293 294 294 294 295 295 296 296 297 298 299 300 301 301 302 302 302 302 303 303 304 305 306 306 307 307 307 307 307 306 306 306 305 305 304 304 303 303 302 301 299 297 295
276 277 277 277 276 274 272 271 269 269 270 271 272 273 274 275 276 276 275 274 272 271 271 272 274 276 276 276 276 276 277 278 279 281 282 284 285 286 287 288 289 290 291 292 292 293 293 294 295 295 296 297 298 299 300 300 301 301 301 301 302 302 303 303 304 305 305 306 306 306 306 306 306 306 305 305 305 304 304 303 303 302 301 300 298 295
275 275 275 273 272 270 268 268 268 270 271 272 273 274 275 276 276 276 276 275 273 272 272 272 274 275 277 277 278 278 278 278 279 280 281 283 284 285 286 288 289 290 290 291 291 292 293 294 295 295 296 297 298 299 300 300 300 301 301 301 301 302 302 303 304 304 305 305 305 305 306 306 306 306 306 305 305 305 304 304 303 302 301 300 298 296
274 273 271 269 268 267 267 268 269 271 272 273 274 275 275 276 276 276 276 276 275 275 274 274 275 275 277 278 279 279 279 278 279 280 281 282 284 285 286 288 289 290 290 291 291 292 293 294 295 295 296 297 298 299 299 300 300 300 300 300 301 301 301 302 303 303 304 304 305 305 305 306 306 306 306 306 306 305 305 305 304 303 302 300 298 295
270 269 267 266 265 266 268 269 271 272 273 274 274 275 275 276 276 277 277 277 277 277 277 277 276 276 276 278 280 280 279 279 280 281 282 283 284 285 286 288 289 290 290 291 291 292 293 294 295 295 296 297 298 298 299 299 299 299 299 299 300 300 301 301 302 302 303 304 305 305 306 307 307 307 307 307 307 306 306 305 305 303 302 300 298 295
267 265 264 264 265 266 268 270 272 273 274 274 275 275 276 277 277 277 278 278 278 278 278 278 278 277 277 278 279 280 280 281 282 282 283 283 284 285 287 288 289 289 290 291 291 292 293 293 294 295 296 296 297 298 298 298 299 299 299 299 299 300 300 301 302 303 303 304 305 306 307 307 308 308 308 308 308 307 307 306 305 304 302 300 298 295
264 264 263 264 265 266 268 271 272 273 274 275 276 277 278 278 278 278 278 279 279 279 278 279 279 279 278 278 278 279 280 282 283 283 284 284 285 286 287 288 288 289 289 290 291 292 292 293 294 295 295 296 297 297 298 298 298 298 298 299 299 300 300 301 302 303 304 305 306 307 308 308 309 309 309 309 308 308 307 306 305 304 302 300 297 294
264 264 265 266 266 267 269 270 272 273 274 276 277 278 279 279 278 279 279 279 279 279 279 279 279 279 279 278 278 279 280 282 283 284 284 285 285 286 287 287 288 289 290 290 291 292 292 293 294 295 296 296 297 298 298 298 298 298 299 299 299 300 300 301 302 303 304 306 307 308 309 309 310 310 310 309 309 308 307 306 305 303 301 299 296 292
264 265 267 267 268 268 269 270 272 273 275 277 278 279 279 279 280 280 280 280 280 280 280 280 280 280 280 280 279 279 280 282 283 284 284 285 285 286 287 287 288 289 290 291 292 293 293 294 295 296 296 297 298 298 298 298 298 298 298 299 299 300 300 301 302 304 305 306 307 309 309 310 310 310 310 310 309 308 307 306 304 302 300 297 293 289
265 266 268 269 270 270 271 272 273 275 276 278 279 280 280 280 281 281 281 281 281 281 281 281 280 280 281 281 280 280 281 282 283 284 284 285 285 286 287 288 289 290 290 292 293 294 294 295 296 296 297 298 298 298 298 298 298 298 298 299 299 300 300 301 303 304 305 307 308 309 310 310 311 310 310 310 309 307 306 304 302 300 297 294 290 286
265 266 268 270 271 272 273 274 276 277 278 279 280 280 280 281 281 282 282 282 282 282 282 282 281 281 282 282 281 281 282 282 283 284 284 285 286 286 287 288 289 290 291 292 293 294 295 296 296 297 297 298 298 298 299 298 298 298 298 299 299 300 301 302 303 304 306 307 308 309 310 311 311 310 310 309 308 306 305 303 300 297 294 291 287 282
265 267 269 271 273 274 275 277 278 278 280 280 281 281 281 281 282 282 282 282 282 282 282 282 282 283 283 282 282 282 282 283 284 284 285 285 286 286 287 288 290 291 292 293 294 295 296 296 297 298 298 298 299 299 299 299 298 298 298 299 299 300 301 302 303 304 306 307 308 310 310 311 311 310 309 308 307 305 303 300 298 295 291 288 284 280
267 269 271 273 275 276 277 278 279 280 281 281 282 282 282 283 282 282 282 282 282 282 282 283 283 283 283 283 283 283 283 283 284 285 285 285 286 286 287 288 290 291 292 294 295 296 297 297 298 298 299 299 299 299 299 299 298 298 298 298 299 300 301 302 303 304 306 307 309 310 310 310 310 310 309 307 305 303 301 298 295 292 289 286 283 279
271 273 274 276 277 278 279 280 281 281 282 282 283 283 283 283 283 283 283 283 283 283 283 283 283 283 283 283 284 284 284 284 285 285 285 285 286 286 287 288 290 292 293 295 296 297 298 298 298 299 299 299 299 299 299 299 298 298 298 298 299 300 301 302 303 304 306 307 309 309 310 310 310 309 308 307 304 302 299 296 293 291 288 285 282 279
275 276 277 278 279 279 280 281 281 282 283 283 283 284 283 283 283 283 283 283 283 283 283 283 283 283 283 284 284 284 284 285 285 285 285 285 286 287 288 290 291 293 295 296 297 298 299 299 299 299 299 299 299 299 299 298 298 298 298 298 299 299 300 302 303 304 306 307 309 309 310 310 310 309 308 306 303 301 298 295 293 290 287 285 282 280
275 276 277 278 279 280 281 281 282 283 283 284 284 284 284 284 284 284 284 284 284 284 284 284 283 283 283 283 283 283 284 284 284 284 284 285 287 288 289 291 293 295 296 297 298 299 300 299 299 299 299 299 299 299 298 298 298 297 297 298 298 299 300 301 303 304 306 307 308 309 309 310 309 308 307 305 303 300 298 295 292 290 288 285 283 281
274 275 276 277 279 280 281 282 282 283 283 284 284 284 284 284 285 284 284 284 284 284 284 284 284 283 283 283 283 283 283 283 283 284 285 286 288 289 290 292 294 296 297 298 299 300 300 300 299 299 299 299 299 298 298 297 297 297 297 297 298 299 300 301 303 304 305 307 308 309 309 309 309 308 306 305 302 300 297 295 293 290 288 286 284 282
273 274 276 277 279 280 281 282 282 283 283 284 284 284 284 284 284 284 284 284 284 284 284 284 284 283 283 283 283 283 283 283 284 285 286 288 289 290 292 293 295 296 297 298 299 300 300 300 300 299 299 299 298 298 297 297 296 296 296 297 297 298 299 301 302 304 305 306 308 308 309 309 308 307 306 304 302 300 298 295 293 291 289 288 286 284
273 275 276 277 279 280 281 281 282 283 283 283 284 284 284 284 284 284 284 284 284 284 284 284 284 284 284 284 284 284 284 284 285 286 287 288 290 291 292 294 295 296 297 298 299 299 300 300 300 300 300 299 298 297 296 296 295 295 295 296 297 298 299 300 302 303 305 306 307 308 308 308 308 307 305 304 302 300 298 296 294 292 291 289 287 286
275 276 277 278 279 280 281 282 282 282 283 283 283 283 284 284 284 284 284 284 284 284 284 285 284 285 285 284 284 284 284 285 286 287 288 289 290 291 293 294 296 297 298 298 299 299 299 298 299 299 299 298 298 297 296 295 295 294 295 295 296 297 298 299 301 303 304 305 306 307 307 307 307 306 304 303 301 299 297 295 294 292 291 290 288 287
276 278 279 280 280 281 281 282 282 282 282 283 283 283 283 284 284 284 284 285 285 285 285 285 285 285 285 285 285 284 284 285 286 286 288 289 291 292 293 295 296 297 298 299 300 300 299 298 298 298 298 297 297 296 295 295 294 294 294 294 295 296 297 298 300 301 303 304 305 306 306 306 305 304 302 301 299 297 296 294 293 291 290 288 287 286
276 278 279 280 281 281 281 281 281 281 282 282 282 282 283 283 284 284 284 285 285 285 285 285 285 285 285 285 285 284 284 284 285 286 288 290 291 293 294 295 296 297 298 299 299 300 300 299 298 298 297 297 296 296 295 294 294 293 293 293 294 294 295 296 298 299 301 302 303 304 304 303 302 301 299 297 295 294 292 290 289 288 287 285 284 283
277 278 279 279 280 280 280 280 280 280 281 281 281 281 282 282 283 283 284 284 285 285 285 285 285 285 285 285 284 284 284 285 285 287 289 290 292 293 295 296 296 297 298 298 299 299 299 299 298 297 297 296 296 296 296 295 294 293 293 293 293 293 293 294 296 297 299 300 301 301 301 300 299 297 296 294 292 290 289 287 286 284 283 283 282 280
278 278 278 279 279 279 280 280 280 280 281 281 281 281 282 282 283 283 283 284 284 284 285 285 285 284 284 284 284 284 285 285 286 288 290 291 293 294 295 296 296 297 298 298 299 299 299 298 298 297 297 296 295 296 295 295 294 293 293 292 292 292 292 293 294 295 297 298 299 300 300 299 299 297 296 294 293 291 289 287 285 284 283 282 281 280
278 278 278 278 279 279 279 280 280 281 281 281 282 282 282 283 283 283 284 284 284 284 285 285 285 285 284 284 284 285 285 286 287 289 290 292 293 294 295 296 296 297 297 298 298 298 298 298 298 297 296 295 294 294 294 294 294 293 293 292 292 292 292 293 294 295 297 298 299 301 301 301 301 301 300 299 298 296 294 292 290 288 287 285 284 282
278 278 278 278 278 279 279 280 280 281 281 282 282 283 283 283 283 284 284 284 284 285 285 285 285 285 285 285 285 285 286 287 288 290 291 292 294 295 295 296 296 297 297 298 298 298 297 297 296 296 295 294 294 293 293 292 292 292 292 292 292 292 292 293 295 296 298 300 301 302 303 303 304 304 303 303 302 301 299 297 296 294 292 290 288 286
278 278 278 278 279 279 279 280 280 281 281 282 282 283 283 283 283 284 284 284 284 284 284 284 285 285 285 286 286 286 287 288 289 290 291 293 293 294 295 295 296 296 297 297 297 297 297 296 295 294 294 293 293 292 292 291 290 290 290 290 291 291 292 293 295 297 298 300 301 302 303 304 304 304 304 304 303 302 301 299 298 297 295 294 292 290
279 279 279 280 280 280 281 281 281 282 282 282 283 283 283 283 284 284 284 283 283 283 283 284 284 284 285 286 286 287 288 289 290 291 291 292 293 294 294 294 295 295 296 296 296 297 296 296 295 294 293 292 291 291 290 290 289 288 288 288 288 289 291 292 294 295 297 299 300 301 302 302 303 303 303 303 302 301 300 299 298 297 296 295 293 292
281 281 281 281 282 282 282 282 282 283 283 283 284 284 284 284 284 283 283 283 283 283 283 283 283 284 285 286 287 287 288 289 290 291 291 292 292 293 293 294 294 294 294 295 295 295 295 295 294 293 292 291 290 290 289 288 287 287 286 286 286 287 289 291 292 294 296 297 298 299 300 301 301 302 302 302 302 301 300 299 298 297 296 295 294 292
281 281 281 282 282 283 283 283 283 284 284 284 284 284 284 284 284 283 283 283 283 283 283 284 284 285 286 287 287 288 289 290 291 291 291 292 292 292 293 293 293 293 293 294 294 294 294 293 293 292 291 290 289 289 288 287 286 285 285 284 285 286 288 289 291 292 294 295 296 297 298 299 300 301 301 301 301 300 300 299 298 296 295 294 293 292
281 281 282 282 282 283 283 283 284 284 284 284 285 284 284 284 284 284 284 284 284 284 284 285 286 287 287 288 288 288 289 290 291 291 292 292 292 292 292 292 293 293 293 293 293 292 292 292 292 291 290 290 289 288 286 285 284 284 284 284 284 285 286 288 289 291 292 293 294 296 297 298 299 300 301 301 300 300 299 299 298 297 295 294 293 292
281 281 282 282 283 283 284 284 284 285 285 285 285 285 285 285 285 284 285 285 285 285 286 286 287 287 288 288 288 289 290 290 291 292 292 292 292 292 292 292 292 292 292 292 292 292 291 291 291 290 290 289 289 288 286 284 283 282 282 283 284 284 285 286 287 289 290 291 293 295 296 297 299 300 301 301 301 301 300 300 299 298 296 295 293 292
281 282 283 283 283 284 284 285 285 286 286 286 285 285 285 285 285 285 285 285 285 286 286 287 287 288 288 289 289 290 291 291 292 292 292 292 292 292 292 292 292 292 292 292 292 291 291 290 290 289 289 289 289 287 286 283 282 281 282 283 284 285 285 286 286 287 288 290 292 294 296 297 299 300 301 301 301 302 301 301 300 298 296 294 293 291
281 282 283 283 284 284 285 285 286 286 286 286 286 286 285 285 285 284 284 284 284 284 285 286 286 287 288 289 289 290 291 291 292 292 292 292 292 292 292 292 292 292 293 292 292 292 291 290 289 289 288 288 288 287 285 283 282 281 281 282 283 285 285 286 286 287 288 290 292 294 295 297 298 299 300 301 301 302 301 301 299 297 295 293 291 290
281 282 282 283 283 284 284 285 286 286 287 287 287 287 286 286 285 285 284 284 284 284 285 285 286 287 288 288 289 289 289 290 290 291 291 292 292 292 293 293 293 293 293 293 292 292 291 290 290 289 288 287 286 285 284 283 282 282 281 282 283 284 285 285 286 287 289 290 292 293 294 296 297 299 300 301 301 302 301 300 299 297 294 292 290 288
281 281 281 282 283 283 284 284 285 286 286 287 287 287 288 287 287 286 286 285 285 285 285 286 287 287 288 288 288 288 288 288 289 289 289 290 291 291 292 293 294 294 294 293 293 292 291 291 290 289 288 286 285 283 282 282 282 282 282 282 283 283 283 284 285 287 289 290 291 292 294 295 296 298 299 301 302 302 302 301 299 297 294 291 289 287
280 280 281 281 282 282 283 283 284 285 285 286 287 287 288 288 288 288 287 287 286 286 286 286 287 287 288 288 288 288 289 289 289 289 289 289 289 290 291 292 292 293 293 293 293 292 291 291 290 289 288 286 284 282 281 281 281 281 282 282 282 282 283 284 285 286 288 289 291 292 294 295 297 298 300 301 303 303 303 301 299 297 294 291 289 287
280 280 281 281 282 282 283 283 283 284 284 285 286 287 288 289 289 289 288 287 286 286 286 286 286 287 288 288 289 289 290 291 291 291 291 291 290 290 290 290 290 291 291 291 291 291 290 290 290 289 288 286 284 282 281 281 281 281 282 282 282 282 283 284 285 286 287 289 290 292 294 295 297 299 300 302 303 303 303 302 299 296 293 290 288 286
280 281 281 282 283 283 283 283 283 284 284 284 285 287 288 289 289 288 288 287 286 285 285 286 287 288 289 289 290 290 291 292 293 293 293 292 292 291 291 290 289 289 288 288 288 288 288 288 287 287 287 286 284 283 282 281 281 281 281 282 282 283 284 284 285 286 287 288 290 292 293 295 297 299 300 301 303 303 303 302 299 295 292 289 286 284
Height
3104 3104 3103 3103 3103 3102 3102 3101 3101 3101 3100 3100 3099 3098 3097 3097 3096 3096 3095 3095 3095 3094 3094 3094 3093 3093 3093 3093 3093 3093 3093 3093 3093 3093 3093 3093 3093 3092 3092 3092 3092 3092 3092 3092 3091 3091 3091 3091 3091 3091 3091 3090 3090 3090 3089 3089 3088 3088 3087 3087 3087 3086 3086 3085 3085 3084 3084 3083 3083 3083 3082 3082 3081 3081 3081 3080 3080 3080 3079 3079 3079 3078 3078 3078 3078 3078
3102 3102 3101 3101 3101 3100 3099 3099 3099 3098 3098 3097 3097 3096 3096 3095 3094 3094 3093 3093 3093 3093 3092 3092 3092 3092 3092 3092 3092 3092 3092 3092 3092 3092 3092 3092 3092 3091 3091 3091 3091 3091 3091 3090 3090 3090 3090 3090 3090 3089 3089 3089 3089 3088 3088 3087 3087 3086 3086 3086 3085 3085 3084 3084 3083 3083 3082 3082 3082 3082 3081 3081 3080 3080 3079 3079 3079 3078 3078 3077 3077 3077 3077 3077 3076 3076
3100 3099 3099 3099 3098 3098 3097 3097 3097 3096 3096 3095 3095 3094 3094 3093 3092 3092 3092 3091 3091 3091 3091 3091 3091 3090 3090 3090 3090 3091 3091 3091 3091 3091 3090 3090 3090 3090 3090 3090 3089 3089 3089 3089 3089 3089 3088 3088 3088 3088 3088 3087 3087 3087 3086 3086 3085 3085 3084 3084 3084 3083 3083 3082 3082 3082 3081 3081 3080 3080 3080 3079 3079 3078 3078 3078 3077 3077 3077 3076 3076 3076 3075 3075 3075 3075
3097 3097 3097 3096 3096 3096 3095 3095 3094 3094 3093 3093 3092 3092 3092 3091 3091 3090 3090 3090 3089 3089 3089 3089 3089 3089 3089 3089 3089 3089 3089 3089 3089 3089 3089 3089 3089 3089 3088 3088 3088 3088 3088 3088 3087 3087 3087 3087 3087 3086 3086 3086 3085 3085 3084 3084 3083 3083 3083 3082 3082 3082 3081 3081 3080 3080 3080 3079 3079 3078 3078 3078 3077 3077 3077 3076 3076 3076 3075 3075 3075 3074 3074 3074 3073 3073
3096 3095 3094 3094 3094 3093 3093 3093 3092 3092 3092 3091 3091 3090 3090 3089 3089 3088 3088 3088 3088 3088 3088 3088 3088 3088 3088 3088 3088 3088 3088 3088 3088 3088 3088 3087 3087 3087 3087 3087 3087 3087 3086 3086 3086 3086 3086 3085 3085 3085 3084 3084 3084 3083 3083 3082 3082 3082 3081 3081 3080 3080 3079 3079 3079 3078 3078 3078 3077 3077 3077 3076 3076 3076 3075 3075 3074 3074 3074 3073 3073 3073 3073 3072 3072 3072
3094 3093 3092 3092 3092 3092 3091 3091 3090 3090 3089 3089 3089 3088 3088 3087 3087 3087 3087 3087 3086 3086 3087 3087 3087 3087 3087 3087 3087 3087 3087 3087 3087 3087 3087 3086 3086 3086 3086 3086 3085 3085 3085 3085 3084 3084 3084 3084 3083 3083 3083 3082 3082 3082 3081 3081 3080 3080 3079 3079 3079 3078 3078 3077 3077 3077 3077 3076 3076 3075 3075 3075 3074 3074 3074 3073 3073 3072 3072 3072 3072 3072 3071 3071 3071 3070
3092 3091 3091 3090 3090 3089 3089 3088 3088 3088 3087 3087 3087 3087 3086 3086 3086 3085 3085 3085 3085 3085 3085 3085 3085 3085 3085 3085 3085 3085 3085 3085 3085 3085 3085 3085 3085 3085 3084 3084 3084 3084 3083 3083 3083 3083 3082 3082 3082 3082 3081 3081 3080 3080 3080 3079 3079 3078 3078 3077 3077 3077 3077 3076 3076 3075 3075 3074 3074 3074 3073 3073 3073 3072 3072 3072 3071 3071 3071 3071 3070 3070 3070 3069 3069 3069
3089 3089 3088 3088 3088 3087 3087 3087 3086 3086 3086 3086 3085 3085 3085 3084 3084 3084 3084 3084 3084 3084 3084 3084 3084 3084 3084 3084 3084 3084 3084 3084 3084 3084 3083 3083 3083 3083 3083 3083 3082 3082 3082 3082 3082 3081 3081 3080 3080 3080 3079 3079 3078 3078 3078 3077 3077 3077 3077 3076 3076 3075 3075 3075 3074 3074 3073 3073 3072 3072 3072 3071 3071 3071 3070 3070 3070 3069 3069 3069 3068 3068 3068 3068 3067 3067
3087 3087 3086 3086 3086 3085 3085 3085 3084 3084 3084 3084 3084 3083 3083 3083 3083 3083 3083 3083 3083 3082 3082 3082 3082 3082 3082 3082 3082 3082 3082 3082 3082 3082 3082 3082 3082 3082 3081 3081 3081 3081 3080 3080 3080 3079 3079 3079 3078 3078 3077 3077 3077 3077 3076 3076 3076 3075 3075 3075 3074 3074 3073 3073 3072 3072 3072 3071 3071 3071 3070 3070 3069 3069 3069 3068 3068 3068 3067 3067 3067 3067 3066 3066 3066 3066
3085 3085 3084 3084 3084 3083 3083 3083 3082 3082 3082 3082 3082 3082 3082 3082 3082 3082 3082 3082 3082 3082 3081 3081 3081 3081 3081 3081 3081 3080 3080 3080 3080 3080 3080 3080 3080 3080 3080 3079 3079 3079 3079 3078 3078 3078 3077 3077 3077 3076 3076 3076 3075 3075 3075 3074 3074 3074 3074 3073 3073 3072 3072 3072 3071 3071 3070 3070 3069 3069 3068 3068 3068 3067 3067 3067 3066 3066 3066 3065 3065 3065 3064 3064 3064 3064
3082 3082 3082 3082 3082 3082 3081 3081 3081 3081 3081 3081 3081 3081 3081 3080 3080 3080 3080 3080 3080 3080 3080 3080 3080 3080 3080 3080 3079 3079 3079 3079 3079 3079 3079 3078 3078 3078 3078 3078 3077 3077 3077 3077 3076 3076 3076 3075 3075 3075 3074 3074 3074 3073 3073 3073 3073 3072 3072 3072 3072 3071 3071 3070 3069 3069 3068 3068 3068 3067 3067 3067 3066 3066 3065 3065 3064 3064 3064 3063 3063 3063 3062 3062 3062 3062
3081 3080 3080 3080 3080 3080 3080 3079 3079 3079 3079 3079 3079 3079 3079 3079 3079 3079 3079 3079 3079 3079 3078 3078 3078 3078 3078 3078 3078 3078 3077 3077 3077 3077 3077 3077 3077 3077 3076 3076 3076 3076 3075 3075 3075 3074 3074 3074 3073 3073 3073 3072 3072 3072 3072 3072 3071 3071 3071 3070 3070 3069 3069 3068 3068 3067 3067 3067 3066 3066 3065 3065 3064 3064 3063 3063 3062 3062 3062 3061 3061 3061 3060 3060 3060 3059
3078 3078 3078 3078 3078 3078 3078 3078 3078 3078 3078 3078 3078 3078 3077 3077 3077 3077 3077 3077 3078 3077 3077 3077 3077 3077 3077 3077 3077 3077 3076 3076 3076 3076 3075 3075 3075 3075 3075 3075 3074 3074 3074 3074 3073 3073 3072 3072 3072 3072 3071 3071 3071 3071 3070 3070 3070 3069 3069 3069 3068 3067 3067 3067 3066 3066 3065 3065 3064 3064 3063 3063 3062 3062 3062 3061 3061 3060 3060 3059 3059 3058 3058 3058 3057 3057
3077 3077 3077 3077 3077 3077 3077 3077 3077 3077 3077 3077 3077 3076 3076 3076 3076 3076 3076 3076 3076 3076 3076 3076 3076 3075 3075 3075 3075 3075 3075 3075 3075 3074 3074 3074 3073 3073 3073 3073 3073 3073 3072 3072 3072 3072 3071 3071 3071 3070 3070 3069 3069 3069 3069 3068 3068 3068 3067 3067 3066 3066 3065 3065 3064 3064 3063 3063 3062 3062 3062 3061 3061 3060 3060 3059 3058 3058 3057 3057 3057 3056 3056 3056 3055 3055
3075 3075 3075 3075 3075 3075 3075 3075 3075 3075 3075 3075 3075 3075 3075 3075 3075 3074 3074 3075 3075 3075 3075 3074 3074 3074 3074 3073 3073 3073 3073 3073 3073 3073 3073 3072 3072 3072 3072 3072 3072 3072 3071 3071 3070 3070 3070 3069 3069 3068 3068 3068 3067 3067 3067 3067 3067 3066 3066 3065 3065 3064 3064 3063 3063 3062 3062 3061 3061 3060 3060 3059 3059 3058 3057 3057 3057 3056 3055 3055 3054 3054 3053 3053 3053 3052
3073 3073 3073 3074 3074 3074 3074 3074 3074 3074 3074 3074 3073 3073 3073 3073 3073 3073 3073 3073 3073 3073 3073 3073 3073 3073 3072 3072 3072 3072 3072 3072 3072 3072 3071 3071 3071 3070 3070 3070 3070 3070 3070 3069 3069 3068 3068 3067 3067 3067 3066 3066 3066 3066 3065 3065 3065 3064 3064 3063 3063 3062 3062 3062 3061 3061 3060 3059 3059 3058 3058 3057 3057 3056 3056 3055 3054 3054 3053 3052 3052 3052 3051 3051 3051 3050
3072 3072 3072 3072 3072 3072 3072 3072 3072 3072 3072 3072 3072 3072 3072 3072 3072 3072 3072 3072 3072 3072 3072 3072 3071 3071 3071 3071 3070 3070 3070 3070 3070 3070 3070 3069 3069 3069 3069 3069 3069 3068 3068 3067 3067 3067 3067 3066 3066 3065 3065 3065 3064 3064 3064 3063 3063 3062 3062 3062 3061 3061 3060 3060 3059 3059 3058 3057 3057 3057 3056 3055 3055 3054 3053 3053 3052 3052 3051 3050 3050 3049 3049 3049 3048 3048
3070 3071 3071 3071 3071 3071 3071 3071 3071 3071 3071 3071 3071 3071 3071 3071 3071 3070 3070 3070 3070 3070 3070 3070 3070 3070 3070 3070 3069 3068 3068 3068 3068 3068 3068 3068 3067 3067 3067 3067 3067 3067 3066 3066 3066 3065 3065 3064 3064 3063 3063 3063 3063 3062 3062 3062 3061 3061 3060 3060 3059 3059 3058 3058 3057 3057 3056 3056 3055 3054 3054 3053 3052 3052 3051 3051 3050 3049 3049 3048 3048 3047 3047 3047 3046 3046
3069 3069 3069 3070 3070 3070 3070 3070 3070 3069 3069 3069 3069 3069 3069 3069 3069 3069 3069 3069 3068 3068 3068 3068 3068 3068 3068 3068 3067 3067 3066 3066 3067 3067 3066 3066 3066 3066 3066 3065 3065 3065 3065 3064 3064 3064 3063 3063 3062 3062 3062 3062 3061 3061 3061 3060 3060 3059 3058 3058 3057 3057 3056 3056 3055 3055 3054 3053 3053 3052 3052 3051 3050 3050 3049 3048 3048 3047 3047 3046 3046 3045 3045 3044 3044 3044
3067 3067 3068 3068 3068 3068 3068 3068 3068 3068 3068 3068 3068 3068 3068 3067 3067 3067 3067 3067 3067 3067 3067 3067 3067 3066 3066 3066 3066 3065 3065 3065 3065 3065 3065 3064 3064 3064 3064 3064 3064 3063 3063 3063 3062 3062 3062 3061 3061 3060 3060 3060 3059 3059 3059 3058 3058 3057 3057 3056 3056 3055 3054 3054 3053 3053 3052 3052 3051 3050 3049 3049 3048 3047 3047 3046 3046 3045 3044 3044 3044 3043 3043 3042 3042 3042
3066 3066 3067 3067 3067 3067 3067 3067 3067 3067 3067 3067 3067 3067 3066 3066 3066 3066 3066 3065 3065 3065 3065 3065 3065 3064 3064 3065 3064 3064 3063 3063 3063 3063 3063 3062 3062 3062 3062 3062 3062 3062 3061 3061 3061 3060 3060 3059 3059 3058 3058 3058 3057 3057 3057 3056 3056 3055 3055 3054 3054 3053 3052 3052 3051 3051 3050 3049 3049 3048 3047 3047 3046 3045 3045 3044 3044 3043 3042 3042 3042 3041 3041 3041 3041 3041
3065 3065 3065 3065 3065 3065 3065 3066 3066 3065 3065 3065 3065 3065 3065 3064 3064 3064 3064 3064 3063 3063 3063 3063 3063 3063 3063 3063 3063 3062 3062 3062 3062 3061 3061 3061 3061 3060 3060 3060 3060 3060 3059 3059 3059 3058 3058 3057 3057 3056 3056 3056 3055 3055 3055 3054 3054 3053 3053 3052 3052 3051 3051 3050 3049 3049 3048 3047 3047 3046 3045 3045 3044 3043 3043 3042 3042 3041 3041 3040 3040 3040 3039 3039 3039 3039
3064 3064 3064 3064 3064 3064 3064 3064 3064 3064 3063 3063 3063 3063 3063 3063 3062 3062 3062 3062 3062 3062 3062 3062 3061 3061 3061 3061 3061 3061 3060 3060 3060 3060 3060 3059 3059 3058 3058 3058 3058 3058 3057 3057 3057 3057 3056 3055 3055 3054 3054 3054 3053 3053 3053 3052 3052 3051 3051 3050 3050 3049 3049 3048 3047 3047 3046 3045 3045 3044 3043 3043 3042 3042 3041 3040 3040 3039 3039 3038 3038 3038 3038 3038 3038 3038
3062 3062 3062 3062 3062 3062 3062 3062 3062 3062 3062 3062 3062 3062 3061 3061 3061 3061 3061 3060 3060 3060 3060 3060 3060 3059 3059 3059 3059 3059 3058 3058 3058 3058 3058 3058 3057 3057 3057 3057 3056 3056 3056 3056 3055 3055 3054 3053 3053 3052 3052 3052 3051 3051 3051 3050 3050 3049 3049 3048 3048 3047 3047 3046 3045 3045 3044 3043 3043 3042 3041 3041 3040 3039 3039 3038 3038 3037 3037 3037 3037 3036 3036 3036 3036 3036
3061 3061 3060 3060 3060 3061 3060 3060 3060 3060 3060 3060 3060 3060 3059 3059 3059 3059 3059 3059 3058 3058 3058 3058 3058 3057 3057 3057 3057 3057 3057 3057 3056 3056 3056 3056 3056 3055 3055 3055 3055 3054 3054 3054 3053 3053 3052 3052 3051 3051 3050 3050 3049 3049 3048 3048 3047 3047 3047 3046 3046 3045 3044 3044 3043 3042 3042 3041 3041 3040 3039 3039 3038 3037 3037 3037 3036 3036 3035 3035 3035 3035 3035 3035 3035 3035
3059 3059 3059 3059 3059 3059 3059 3059 3058 3058 3058 3058 3058 3058 3057 3057 3057 3057 3057 3057 3057 3057 3056 3056 3056 3056 3056 3056 3055 3055 3055 3055 3055 3055 3054 3054 3054 3054 3053 3053 3053 3052 3052 3052 3052 3051 3051 3050 3049 3048 3048 3047 3047 3047 3047 3046 3046 3045 3044 3044 3043 3043 3042 3042 3041 3040 3040 3039 3038 3038 3037 3037 3036 3036 3035 3035 3034 3034 3033 3033 3033 3033 3033 3033 3033 3033
3057 3057 3057 3057 3057 3057 3057 3057 3057 3057 3057 3056 3056 3056 3056 3056 3056 3055 3055 3055 3055 3055 3055 3055 3054 3054 3054 3054 3054 3053 3053 3053 3053 3053 3053 3053 3052 3052 3052 3051 3051 3051 3050 3050 3050 3049 3049 3048 3047 3047 3046 3046 3045 3045 3044 3044 3043 3043 3042 3042 3041 3041 3040 3039 3039 3038 3037 3037 3036 3036 3035 3035 3034 3034 3033 3033 3032 3032 3032 3031 3031 3031 3031 3031 3031 3031
3056 3056 3055 3055 3055 3055 3055 3055 3055 3055 3055 3054 3054 3054 3054 3054 3054 3053 3053 3053 3053 3053 3053 3053 3053 3052 3052 3052 3052 3052 3052 3052 3051 3051 3051 3051 3051 3050 3050 3050 3049 3049 3048 3048 3048 3047 3047 3046 3046 3045 3044 3044 3043 3043 3042 3042 3041 3041 3040 3039 3039 3038 3038 3037 3037 3036 3035 3035 3034 3034 3033 3032 3032 3032 3031 3031 3030 3030 3030 3029 3029 3029 3029 3029 3029 3029
3054 3054 3054 3054 3054 3053 3053 3053 3053 3053 3053 3053 3052 3052 3052 3052 3052 3052 3052 3052 3052 3051 3051 3051 3051 3051 3051 3051 3051 3050 3050 3050 3049 3049 3049 3049 3049 3048 3048 3048 3047 3047 3047 3046 3046 3045 3045 3044 3043 3043 3042 3042 3042 3041 3040 3040 3039 3038 3038 3037 3037 3036 3035 3035 3034 3034 3033 3032 3032 3031 3031 3030 3030 3029 3029 3028 3028 3028 3027 3027 3027 3027 3027 3027 3027 3027
3052 3052 3052 3052 3052 3052 3052 3052 3051 3051 3051 3051 3051 3051 3050 3050 3050 3050 3050 3050 3050 3050 3050 3050 3049 3049 3049 3049 3049 3049 3048 3048 3047 3047 3047 3047 3047 3047 3046 3046 3045 3045 3045 3044 3044 3043 3042 3042 3041 3041 3040 3040 3040 3039 3038 3038 3037 3037 3036 3035 3034 3034 3033 3032 3032 3032 3031 3030 3030 3029 3029 3028 3027 3027 3027 3026 3026 3026 3025 3025 3025 3025 3024 3024 3024 3024
3051 3051 3050 3050 3050 3050 3050 3050 3049 3049 3049 3049 3049 3049 3048 3048 3048 3048 3048 3048 3048 3048 3048 3048 3047 3047 3047 3047 3047 3047 3047 3046 3046 3045 3046 3045 3045 3045 3044 3044 3043 3043 3042 3042 3042 3042 3041 3040 3039 3038 3038 3038 3037 3037 3037 3036 3035 3034 3034 3033 3032 3032 3031 3030 3030 3029 3029 3028 3027 3027 3026 3026 3025 3025 3025 3024 3024 3023 3023 3023 3022 3022 3022 3022 3022 3022
3049 3049 3048 3048 3048 3048 3048 3048 3048 3047 3047 3047 3047 3047 3047 3047 3047 3046 3046 3046 3046 3046 3046 3046 3046 3046 3045 3045 3045 3045 3045 3044 3044 3043 3043 3043 3043 3043 3042 3042 3041 3041 3041 3040 3040 3040 3039 3038 3037 3037 3036 3036 3035 3035 3034 3034 3033 3032 3032 3031 3030 3030 3029 3028 3028 3027 3027 3026 3025 3025 3024 3024 3023 3023 3022 3022 3022 3021 3021 3021 3020 3020 3020 3020 3020 3020
3047 3047 3047 3047 3046 3046 3046 3046 3046 3046 3046 3046 3045 3045 3045 3045 3045 3045 3044 3044 3044 3044 3044 3044 3044 3043 3043 3043 3043 3043 3043 3042 3042 3042 3041 3041 3041 3041 3040 3040 3039 3039 3038 3038 3037 3037 3037 3037 3036 3035 3034 3034 3033 3032 3032 3032 3031 3030 3030 3029 3028 3027 3027 3026 3026 3025 3025 3024 3023 3023 3022 3022 3021 3021 3021 3020 3020 3019 3019 3019 3018 3018 3018 3018 3018 3017
3045 3045 3045 3045 3045 3044 3044 3044 3044 3044 3044 3044 3044 3043 3043 3043 3043 3043 3042 3042 3042 3042 3042 3042 3042 3042 3042 3042 3041 3041 3041 3041 3040 3039 3039 3039 3039 3039 3038 3038 3037 3037 3037 3036 3036 3035 3035 3034 3034 3033 3032 3031 3031 3030 3030 3029 3029 3028 3027 3027 3026 3026 3025 3024 3024 3023 3023 3022 3022 3021 3021 3020 3020 3019 3019 3018 3018 3018 3017 3017 3017 3016 3016 3016 3016 3016
3044 3043 3043 3043 3043 3043 3042 3042 3042 3042 3042 3042 3042 3042 3042 3041 3041 3041 3041 3041 3040 3040 3040 3040 3040 3040 3040 3039 3039 3039 3039 3039 3038 3037 3037 3037 3037 3037 3036 3036 3035 3035 3034 3034 3033 3033 3032 3032 3031 3031 3030 3029 3028 3028 3027 3027 3026 3026 3025 3025 3024 3023 3023 3022 3022 3022 3021 3020 3020 3019 3019 3018 3018 3017 3017 3017 3017 3016 3016 3015 3015 3015 3014 3014 3014 3013
3042 3042 3041 3041 3041 3041 3041 3041 3041 3040 3040 3040 3040 3040 3040 3039 3039 3039 3039 3039 3038 3038 3038 3038 3038 3038 3037 3037 3037 3037 3037 3037 3036 3036 3035 3035 3035 3034 3034 3033 3033 3032 3032 3032 3031 3031 3031 3030 3029 3028 3028 3027 3026 3025 3025 3024 3024 3023 3023 3022 3022 3021 3021 3020 3020 3019 3019 3018 3018 3017 3017 3016 3016 3016 3015 3015 3015 3014 3014 3013 3013 3013 3012 3012 3012 3011
3040 3040 3039 3039 3039 3039 3039 3039 3039 3038 3038 3038 3038 3038 3037 3037 3037 3037 3037 3037 3037 3037 3036 3036 3036 3036 3036 3035 3035 3035 3035 3035 3034 3034 3033 3033 3032 3032 3032 3031 3031 3030 3030 3029 3029 3029 3028 3028 3027 3026 3026 3025 3024 3023 3022 3022 3022 3021 3020 3020 3019 3018 3018 3017 3017 3017 3016 3016 3015 3015 3014 3013 3013 3012 3012 3012 3012 3011 3011 3011 3010 3010 3010 3009 3009 3009
3038 3038 3038 3038 3037 3037 3037 3037 3037 3037 3037 3036 3036 3036 3036 3036 3035 3035 3035 3035 3035 3034 3034 3034 3034 3034 3033 3033 3033 3033 3032 3032 3032 3032 3031 3031 3030 3030 3030 3029 3028 3028 3027 3027 3027 3026 3026 3026 3025 3024 3023 3023 3022 3021 3021 3020 3019 3018 3018 3017 3016 3016 3015 3015 3014 3014 3013 3013 3012 3012 3011 3010 3010 3009 3009 3008 3008 3008 3007 3007 3007 3007 3007 3006 3006 3006
3037 3036 3036 3036 3036 3036 3036 3035 3035 3035 3035 3035 3034 3034 3034 3034 3033 3033 3033 3033 3033 3032 3032 3032 3032 3032 3031 3031 3031 3030 3030 3030 3030 3029 3029 3029 3028 3028 3027 3027 3026 3025 3025 3024 3024 3024 3023 3023 3022 3022 3022 3021 3020 3019 3018 3018 3017 3017 3016 3015 3014 3013 3012 3012 3012 3011 3011 3010 3010 3009 3008 3007 3007 3007 3006 3006 3005 3005 3005 3004 3004 3003 3003 3003 3003 3002
3035 3034 3034 3034 3034 3034 3034 3034 3033 3033 3033 3033 3032 3032 3032 3032 3032 3032 3031 3031 3031 3031 3030 3030 3030 3030 3029 3029 3028 3028 3028 3027 3027 3027 3027 3026 3026 3025 3025 3024 3024 3023 3022 3022 3022 3021 3021 3020 3020 3020 3019 3019 3018 3017 3017 3016 3015 3014 3014 3013 3012 3011 3011 3010 3009 3009 3008 3008 3007 3007 3006 3005 3005 3004 3004 3003 3003 3002 3002 3002 3001 3001 3000 3000 3000 3000
3033 3033 3032 3032 3032 3032 3032 3032 3032 3031 3031 3031 3031 3031 3030 3030 3030 3030 3029 3029 3029 3028 3028 3028 3028 3027 3027 3027 3026 3026 3025 3025 3025 3024 3024 3024 3023 3023 3022 3022 3021 3021 3020 3020 3019 3018 3018 3017 3017 3017 3016 3016 3016 3015 3015 3014 3013 3012 3011 3011 3010 3009 3009 3008 3007 3007 3006 3006 3005 3005 3004 3003 3003 3002 3002 3001 3001 3000 3000 2999 2998 2998 2997 2997 2997 2997
3031 3031 3031 3031 3031 3031 3030 3030 3030 3030 3029 3029 3029 3029 3028 3028 3028 3028 3027 3027 3027 3027 3026 3026 3026 3025 3025 3024 3024 3023 3023 3022 3022 3022 3022 3021 3021 3020 3020 3019 3019 3018 3018 3017 3017 3016 3015 3015 3014 3014 3014 3013 3013 3013 3012 3012 3011 3010 3009 3008 3008 3008 3007 3006 3005 3005 3004 3004 3003 3002 3002 3001 3001 3000 3000 2999 2998 2998 2997 2997 2996 2996 2995 2994 2994 2994
3029 3029 3029 3029 3029 3029 3028 3028 3028 3028 3027 3027 3027 3027 3027 3026 3026 3026 3025 3025 3024 3024 3024 3024 3024 3023 3023 3022 3022 3021 3021 3020 3020 3019 3019 3018 3018 3017 3017 3017 3016 3016 3015 3015 3014 3013 3013 3012 3012 3011 3011 3011 3011 3011 3010 3009 3008 3007 3007 3006 3006 3006 3005 3004 3003 3003 3002 3002 3001 3000 3000 2999 2998 2998 2997 2997 2996 2996 2995 2994 2994 2993 2992 2992 2991 2991
3028 3027 3027 3027 3027 3027 3027 3026 3026 3026 3026 3025 3025 3025 3024 3024 3024 3023 3023 3023 3022 3022 3022 3022 3021 3021 3020 3020 3019 3018 3018 3018 3017 3017 3016 3016 3015 3015 3014 3014 3013 3013 3012 3012 3012 3011 3011 3010 3009 3009 3008 3008 3008 3008 3007 3007 3006 3005 3004 3003 3003 3003 3003 3002 3002 3001 3000 2999 2998 2998 2997 2997 2996 2996 2995 2995 2994 2993 2992 2992 2991 2990 2990 2989 2988 2988
3026 3026 3026 3025 3025 3025 3025 3024 3024 3024 3023 3023 3023 3022 3022 3022 3022 3021 3021 3021 3020 3020 3019 3019 3019 3018 3018 3017 3017 3016 3016 3015 3015 3014 3013 3013 3012 3012 3012 3011 3011 3010 3010 3010 3009 3008 3008 3007 3007 3006 3006 3006 3005 3005 3005 3004 3003 3003 3002 3001 3001 3001 3001 3000 2999 2998 2998 2997 2996 2996 2995 2994 2993 2993 2992 2992 2991 2991 2990 2989 2989 2988 2987 2986 2986 2985
3024 3024 3023 3023 3023 3023 3022 3022 3022 3022 3021 3021 3021 3020 3020 3020 3019 3019 3019 3018 3018 3017 3017 3017 3017 3016 3016 3015 3014 3014 3013 3013 3012 3011 3010 3010 3009 3008 3008 3008 3007 3007 3007 3007 3006 3006 3005 3005 3004 3004 3003 3003 3003 3002 3002 3001 3001 3000 2999 2999 2998 2998 2998 2997 2997 2996 2995 2995 2994 2993 2992 2992 2991 2990 2990 2989 2989 2988 2988 2987 2986 2985 2985 2984 2983 2982
3022 3022 3022 3021 3021 3021 3020 3020 3020 3019 3019 3019 3018 3018 3017 3017 3017 3017 3016 3016 3015 3015 3015 3014 3014 3014 3013 3012 3012 3011 3011 3010 3010 3009 3008 3007 3006 3005 3004 3004 3004 3004 3004 3003 3003 3003 3002 3002 3002 3001 3001 3001 3000 3000 2999 2998 2998 2997 2997 2997 2996 2996 2995 2995 2994 2993 2992 2992 2991 2991 2990 2989 2988 2988 2987 2987 2987 2986 2986 2985 2984 2983 2982 2981 2980 2980
3020 3019 3019 3019 3019 3018 3018 3018 3017 3017 3017 3017 3016 3016 3015 3015 3014 3014 3013 3013 3013 3012 3012 3012 3011 3011 3011 3010 3009 3009 3008 3008 3007 3007 3006 3005 3004 3003 3002 3001 3001 3000 3000 3000 3000 3000 2999 2999 2999 2998 2998 2998 2997 2997 2997 2996 2995 2995 2994 2994 2994 2993 2993 2992 2991 2991 2990 2989 2989 2988 2987 2987 2986 2985 2985 2984 2984 2984 2983 2982 2981 2980 2979 2978 2978 2977
3017 3017 3017 3017 3016 3016 3016 3015 3015 3015 3014 3014 3014 3013 3013 3012 3012 3012 3011 3011 3010 3010 3009 3009 3009 3008 3008 3007 3006 3006 3005 3005 3004 3004 3003 3003 3002 3001 3000 2999 2998 2998 2997 2997 2997 2996 2996 2996 2996 2995 2995 2994 2994 2994 2994 2993 2993 2992 2992 2992 2991 2991 2990 2990 2989 2988 2987 2987 2986 2985 2985 2984 2983 2982 2982 2981 2981 2981 2981 2980 2979 2978 2977 2976 2975 2974
3015 3015 3014 3014 3014 3013 3013 3013 3013 3012 3012 3012 3011 3011 3011 3010 3010 3009 3009 3008 3008 3007 3007 3006 3006 3005 3005 3004 3003 3003 3002 3002 3001 3001 3000 3000 2999 2999 2998 2997 2997 2996 2995 2994 2994 2993 2993 2993 2993 2993 2992 2991 2991 2991 2991 2991 2990 2990 2989 2989 2988 2988 2987 2987 2987 2986 2985 2984 2983 2983 2982 2981 2981 2980 2979 2978 2978 2978 2978 2977 2977 2976 2974 2973 2972 2972
3012 3012 3012 3012 3011 3011 3011 3010 3010 3010 3009 3009 3009 3008 3008 3007 3007 3007 3006 3006 3005 3004 3004 3003 3003 3002 3002 3002 3001 3000 2999 2999 2998 2997 2997 2996 2996 2995 2995 2994 2994 2993 2993 2992 2992 2991 2991 2991 2991 2990 2990 2988 2987 2987 2987 2987 2987 2987 2987 2986 2986 2985 2985 2984 2984 2983 2982 2982 2981 2980 2980 2979 2978 2977 2977 2976 2975 2975 2975 2975 2974 2973 2972 2971 2970 2969